Location: Berg
(48.4333°N, 13.9167°E)
Time: 05:26:05
(UTC+00:00)

Cosmos 1125 Rocket - Pass Details

Date: 18 September 2020
Orbit: 757 x 780 km, 74.0° (Epoch: 22 October)

Event Time Altitude Azimuth Distance (km) Brightness Sun altitude
Rises 18:57:15 0° 183° (S) 3,243 6.5 -18.1°
Reaches altitude 10° 18:59:41 10° 178° (S) 2,323 5.7 -18.4°
Maximum altitude 19:04:44 47° 105° (ESE) 1,025 3.7 -19.2°
Drops below altitude 10° 19:09:49 10° 33° (NNE) 2,343 5.9 -20.0°
Sets 19:12:17 0° 28° (NNE) 3,276 6.8 -20.3°
